TimeMDT,TemperatureF,Dew PointF,Humidity,Sea Level PressureIn,VisibilityMPH,Wind Direction,Wind SpeedMPH,Gust SpeedMPH,PrecipitationIn,Events,Conditions,WindDirDegrees,DateUTC
12:56 AM,41.0,36.0,82,29.59,10.0,SSW,3.5,-,N/A,,Clear,200,2013-10-08 06:56:00
1:56 AM,41.0,36.0,82,29.58,10.0,WSW,6.9,-,N/A,,Clear,240,2013-10-08 07:56:00
2:56 AM,42.1,37.0,82,29.57,10.0,Calm,Calm,-,N/A,,Clear,0,2013-10-08 08:56:00
3:56 AM,46.9,39.9,77,29.58,10.0,West,9.2,-,N/A,,Clear,270,2013-10-08 09:56:00
4:56 AM,43.0,39.0,86,29.60,10.0,West,10.4,-,N/A,,Clear,270,2013-10-08 10:56:00
5:56 AM,44.1,39.0,82,29.62,10.0,WNW,11.5,-,N/A,,Clear,290,2013-10-08 11:56:00
6:56 AM,46.9,39.0,74,29.65,10.0,WNW,12.7,-,N/A,,Clear,300,2013-10-08 12:56:00
7:56 AM,46.9,39.0,74,29.68,10.0,WNW,6.9,-,N/A,,Clear,300,2013-10-08 13:56:00
8:56 AM,51.1,39.0,63,29.70,10.0,NW,10.4,-,N/A,,Clear,310,2013-10-08 14:56:00
9:56 AM,55.0,36.0,49,29.71,10.0,NNW,10.4,-,N/A,,Clear,330,2013-10-08 15:56:00
10:56 AM,61.0,33.1,35,29.70,10.0,NNW,10.4,20.7,N/A,,Clear,340,2013-10-08 16:56:00
11:56 AM,63.0,30.9,30,29.71,10.0,NNW,16.1,-,N/A,,Clear,340,2013-10-08 17:56:00
12:56 PM,63.0,30.9,30,29.72,10.0,NNW,12.7,-,N/A,,Clear,330,2013-10-08 18:56:00
1:56 PM,66.0,30.9,27,29.70,10.0,North,13.8,-,N/A,,Clear,350,2013-10-08 19:56:00
2:56 PM,64.0,30.9,29,29.70,10.0,NNW,9.2,-,N/A,,Clear,340,2013-10-08 20:56:00
3:56 PM,64.9,30.9,28,29.71,10.0,NNW,10.4,-,N/A,,Clear,340,2013-10-08 21:56:00
4:56 PM,64.9,30.9,28,29.73,10.0,NNW,8.1,-,N/A,,Clear,340,2013-10-08 22:56:00
5:56 PM,59.0,34.0,39,29.76,10.0,North,5.8,-,N/A,,Clear,350,2013-10-08 23:56:00
6:56 PM,53.1,33.1,47,29.80,7.0,NE,3.5,-,N/A,,Clear,40,2013-10-09 00:56:00
7:56 PM,46.9,33.1,59,29.83,10.0,Calm,Calm,-,N/A,,Clear,0,2013-10-09 01:56:00
8:56 PM,45.0,32.0,60,29.86,10.0,Calm,Calm,-,N/A,,Clear,0,2013-10-09 02:56:00
9:56 PM,43.0,34.0,71,29.88,10.0,WNW,5.8,-,N/A,,Clear,290,2013-10-09 03:56:00
10:56 PM,45.0,33.1,63,29.88,10.0,WNW,5.8,-,N/A,,Clear,290,2013-10-09 04:56:00
11:56 PM,45.0,32.0,60,29.91,10.0,WNW,5.8,-,N/A,,Clear,290,2013-10-09 05:56:00